Regional Weather Roundup
Issued by NWS Lake Charles, LA

Home | Current Version | Previous Version | Text Only | Print | Product List | Glossary On
Versions: 1 2 3 4 5 6 7 8 9 10 11 12 13 14 15 16 17 18 19 20 21 22 23 24 25 26 27
000
ASUS44 KLCH 231110
RWRLCH
REGIONAL WEATHER ROUNDUP
NATIONAL WEATHER SERVICE LAKE CHARLES LA
600 AM CDT SAT SEP 23 2017

Note: "fair" indicates few or no clouds below 12,000 feet with no
significant weather and/or obstructions to visibility.


ACROSS SOUTHEAST TEXAS

CITY           SKY/WX    TMP DP  RH WIND       PRES   REMARKS
BEAUMONT       NOT AVBL
BEAUMONT CITY  FAIR      72  70  94 CALM      29.93R
ORANGE         SUNNY     70  70 100 CALM      29.94R FOG
JASPER           N/A     70  70 100 CALM      29.96R FOG
$$

ACROSS CENTRAL LOUISIANA

CITY           SKY/WX    TMP DP  RH WIND       PRES   REMARKS
LEESVILLE      CLEAR     71  69  93 CALM      29.92S
FULLERTON      FAIR      69  68  96 CALM      29.91S FOG
ALEXANDRIA INT NOT AVBL
ESLER FIELD    NOT AVBL
DERIDDER       FAIR      71  69  95 CALM      29.95S
OAKDALE        SUNNY     68  67  95 CALM      29.93S FOG
OPELOUSAS      FAIR      70  70 100 CALM      29.93S FOG
$$

ACROSS SOUTHWEST AND SOUTH CENTRAL LOUISIANA

CITY           SKY/WX    TMP DP  RH WIND       PRES   REMARKS
SULPHUR        SUNNY     73  72  98 CALM      29.93R
LAKE CHARLES   NOT AVBL
CHENNAULT INT  CLEAR     72  70  94 MISG      29.93R
CAMERON PHI      N/A     75  73  94 NE5       29.91R
DEQUINCY       FAIR      69  68  96 CALM      29.93R
JENNINGS       FAIR      73  73  98 CALM      29.93R FOG
LAFAYETTE      NOT AVBL
NEW IBERIA     CLEAR     72  70  94 CALM      29.93
ABBEVILLE      NOT AVBL
PATTERSON      NOT AVBL
SALT POINT       N/A     74  72  93 CALM      29.91R
$$

SELECTED SITES ACROSS THE REGION

CITY           SKY/WX    TMP DP  RH WIND       PRES   REMARKS
HOUSTON BUSH   NOT AVBL
HOUSTON HOBBY  PTCLDY    75  73  94 CALM      29.90
GALVESTON      NOT AVBL
COLLEGE STAT   NOT AVBL
CONROE         NOT AVBL
HUNTSVILLE     NOT AVBL
LUFKIN         NOT AVBL
SHREVEPORT     CLEAR     71  70  96 CALM      29.94R
MONROE         CLEAR     71  70  96 CALM      29.96R FOG
NATCHEZ MS     CLEAR     70  69  97 CALM      29.96R
BATON ROUGE    CLEAR     72  71  97 NE3       29.94R FOG
N.O. INTL ARPT PTCLDY    74  74 100 CALM      29.93R
SLIDELL        NOT AVBL
$$

MARINE REPORTS

STATION/POSITION TIME  SKY/WX   TEMP    WIND        PRES    VSBY
                                AIR SEA DIR/SP/G
                 (UTC)          (F)     (DEG/KT/KT) (MB)    (MI)
BUOY 30 S HIGH I 0950            82 82  110/  8/ 10 1012.3
WVE H/P(F/S)=  2/ 5

SEA RIM ST PARK  1000            78      60/  4/  4 1013.1F
PORT ARTHUR      1042            77 82   10/  3/  3 1013.2R
SABINE PASS N    1042            78 84   40/  4/  5 1014.4R
TEXAS POINT      NOT AVBL
CALCASIEU PASS   1042            78 84   70/  6/  6 1011.8R
LK CHARLES BEACH 1042            75 81              1012.7R
MARSH ISLAND     1000            82                   N/A
FRESH WATER LOCK 1042            78 87   20/  4/  6 1013.0R
AMERADA PASS     1042            74 82   CALM  /  2 1013.2R
$$




USA.gov is the U.S. government's official web portal to all federal, state and local government web resources and services.